This is the latest recevied weather packets stored in our database for station/object N6WDO. If no packets are shown the sender has not sent any weather packets the latest 10 day(s).
| Time | Temp. | Humidity | Pressure | Rain* | Wind** | Luminosity | Snow |
|---|---|---|---|---|---|---|---|
| 1777385833 | 7.22° C | 96% | 1019.9 hPa | 0 mm | - | 51 W/m² | - |
| 1777385530 | 6.67° C | 98% | 1020 hPa | 0 mm | - | 45 W/m² | - |
| 1777385228 | 6.11° C | 98% | 1019.9 hPa | 0 mm | - | 33 W/m² | - |
| 1777384923 | 6.11° C | 98% | 1019.7 hPa | 0 mm | - | 29 W/m² | - |
| 1777384621 | 6.11° C | 98% | 1019.6 hPa | 0 mm | - | 24 W/m² | - |
| 1777384321 | 5.56° C | 98% | 1019.5 hPa | 0 mm | - | 22 W/m² | - |
| 1777384016 | 5.56° C | 98% | 1019.5 hPa | 0 mm | - | 20 W/m² | - |
| 1777383712 | 5° C | 98% | 1019.5 hPa | 0 mm | - | 18 W/m² | - |
| 1777383409 | 5° C | 98% | 1019.5 hPa | 0 mm | - | 16 W/m² | - |
| 1777383105 | 5° C | 98% | 1019.4 hPa | 0 mm | - | 13 W/m² | - |
| 1777382803 | 5° C | 98% | 1019.4 hPa | 0 mm | - | 11 W/m² | - |
| 1777382498 | 5° C | 98% | 1019.4 hPa | 0 mm | - | 8 W/m² | - |
| 1777382194 | 5° C | 97% | 1019.2 hPa | 0 mm | - | 6 W/m² | - |
| 1777381891 | 5° C | 98% | 1019.3 hPa | 0 mm | - | 4 W/m² | - |
| 1777381590 | 5° C | 98% | 1019.4 hPa | 0 mm | - | 2 W/m² | - |
| 1777381286 | 5° C | 98% | 1019.3 hPa | 0 mm | - | 1 W/m² | - |
| 1777380983 | 5° C | 97% | 1019.2 hPa | 0 mm | - | 0 W/m² | - |
| 1777380680 | 5° C | 97% | 1019.4 hPa | 0 mm | - | 0 W/m² | - |
| 1777380376 | 5.56° C | 97% | 1019.1 hPa | 0 mm | - | 0 W/m² | - |
| 1777380072 | 5.56° C | 97% | 1018.9 hPa | 0 mm | - | 0 W/m² | - |
| 1777379768 | 5° C | 97% | 1019.1 hPa | 0 mm | - | 0 W/m² | - |
| 1777379464 | 5° C | 97% | 1019.1 hPa | 0 mm | - | 0 W/m² | - |
| 1777379159 | 5° C | 97% | 1019 hPa | 0 mm | - | 0 W/m² | - |
| 1777378855 | 5° C | 97% | 1019 hPa | 0 mm | - | 0 W/m² | - |
| 1777378551 | 5° C | 97% | 1019.2 hPa | 0 mm | - | 0 W/m² | - |
* Rain latest hour (hover to see other rain measurements)
** Current wind speed in m/s (hover to see current wind gust speed)